Terminal Aerodrome Forecast
Issued by NWS

Home | Current Version | Previous Version | Text Only | Print | Product List | Glossary On
Versions: 1 2 3 4 5 6 7 8 9 10 11 12 13 14 15 16
000
FTUS45 KBOI 190523
TAFJER
TAF
KJER 190523Z 1906/2006 11008KT P6SM SKC
     FM190900 05010KT P6SM SCT200
     FM200000 27010KT P6SM SCT200=

USA.gov is the U.S. government's official web portal to all federal, state and local government web resources and services.